KB1LTW-13 Weather Reports


time (UTC)temp
F
wind
direction
speed
knots
gust
knots
rain 1hr
in
rain 24hr
in
rain mn
in
humidity
%
barometer
mb
20260507010117 59 0.0 0.9 0.00 0.00 0.00 98 1009.4
20260507005122 59 0.0 1.7 0.00 0.00 0.00 98 1009.4
20260507004139 59 52 0.0 1.7 0.00 0.00 0.00 98 1009.2
20260507003120 59 12 1.7 2.6 0.00 0.00 0.00 98 1009.2
20260507002121 59 49 0.0 1.7 0.00 0.00 0.00 97 1008.9
20260507001128 59 32 1.7 1.7 0.00 0.00 0.00 97 1009.0
20260507000144 58 42 0.9 2.6 0.00 0.00 0.00 98 1009.3
20260506235124 58 43 0.9 2.6 0.00 0.00 0.00 97 1009.2
20260506234145 58 40 0.9 2.6 0.00 0.00 0.00 97 1009.1
20260506233126 58 33 1.7 3.5 0.00 0.00 0.00 97 1008.8
20260506232116 58 47 0.0 1.7 0.00 0.00 0.00 97 1008.9
20260506231120 58 39 1.7 3.5 0.00 0.00 0.00 97 1008.9
20260506230126 58 38 0.9 2.6 0.00 0.00 0.00 97 1008.7
20260506225137 58 15 1.7 2.6 0.00 0.00 0.00 97 1008.7
20260506224118 58 24 2.6 5.2 0.00 0.00 0.00 97 1008.6
20260506223125 58 14 2.6 3.5 0.00 0.00 0.00 97 1008.7
20260506222125 58 40 0.9 1.7 0.00 0.00 0.00 97 1008.5
20260506221139 58 43 0.9 3.5 0.00 0.00 0.00 97 1008.6
20260506220120 58 41 0.9 2.6 0.00 0.00 0.00 97 1008.7
20260506215125 58 46 0.9 5.2 0.00 0.00 0.00 97 1008.7
20260506214115 58 38 0.9 3.5 0.00 0.00 0.00 97 1008.8
20260506213118 58 27 1.7 1.7 0.00 0.00 0.00 97 1008.7
20260506212124 58 39 0.9 2.6 0.00 0.00 0.00 97 1008.7
20260506211117 58 25 0.9 1.7 0.00 0.00 0.00 97 1008.7
20260506210137 58 16 1.7 2.6 0.00 0.00 0.00 97 1008.7
20260506205147 58 51 0.0 0.9 0.00 0.00 0.00 97 1008.8
20260506204135 58 100 0.9 3.5 0.00 0.00 0.00 97 1009.0
20260506203124 58 92 0.9 1.7 0.00 0.00 0.00 97 1009.0
20260506202120 58 75 1.7 2.6 0.00 0.00 0.00 96 1009.0
20260506201117 58 95 1.7 2.6 0.00 0.00 0.00 96 1009.1
20260506200121 57 101 0.9 1.7 0.00 0.00 0.00 96 1009.2
20260506195148 57 94 1.7 1.7 0.00 0.00 0.00 96 1009.3
20260506194117 57 93 0.0 1.7 0.00 0.00 0.00 96 1009.3
20260506193119 57 84 1.7 2.6 0.00 0.00 0.00 96 1009.5
20260506192120 57 84 1.7 3.5 0.00 0.00 0.00 96 1009.6
20260506191124 57 99 0.9 1.7 0.00 0.00 0.00 95 1009.7
20260506190121 57 79 1.7 2.6 0.00 0.00 0.00 95 1009.9
20260506185128 57 58 2.6 3.5 0.00 0.00 0.00 95 1010.0
20260506184118 57 72 3.5 5.2 0.00 0.00 0.00 94 1009.8
20260506183121 58 95 2.6 5.2 0.00 0.00 0.00 94 1010.0
20260506182142 58 91 1.7 3.5 0.00 0.00 0.00 94 1009.9
20260506181116 58 27 3.5 3.5 0.00 0.00 0.00 93 1009.9
20260506180121 59 84 1.7 3.5 0.00 0.00 0.00 93 1010.2
20260506175149 59 98 0.9 1.7 0.00 0.00 0.00 92 1009.9
20260506174119 60 84 1.7 2.6 0.00 0.00 0.00 91 1010.2
20260506173143 60 97 0.9 1.7 0.00 0.00 0.00 91 1010.4
20260506172123 60 92 0.9 1.7 0.00 0.00 0.00 89 1010.6
20260506171123 61 104 0.9 0.9 0.00 0.00 0.00 87 1011.1
20260506170144 62 107 0.0 1.7 0.00 0.00 0.00 84 1011.2
20260506165151 63 88 0.9 1.7 0.00 0.00 0.00 80 1011.1
20260506164120 64 92 1.7 5.2 0.00 0.00 0.00 76 1011.3
20260506163116 64 89 0.9 2.6 0.00 0.00 0.00 76 1011.4
20260506162115 64 75 2.6 3.5 0.00 0.00 0.00 74 1011.2
20260506161124 66 86 0.9 3.5 0.00 0.00 0.00 71 1011.0
20260506160125 66 93 0.9 2.6 0.00 0.00 0.00 69 1011.0
20260506155151 66 0.0 0.9 0.00 0.00 0.00 69 1011.4
20260506154121 65 21 3.5 7.0 0.00 0.00 0.00 70 1011.7
20260506153140 66 49 1.7 3.5 0.00 0.00 0.00 70 1011.7
20260506152124 66 13 4.3 6.1 0.00 0.00 0.00 69 1011.7
20260506151125 66 92 0.9 3.5 0.00 0.00 0.00 69 1011.7
20260506150126 66 104 0.9 2.6 0.00 0.00 0.00 70 1011.6
20260506145116 66 86 0.0 1.7 0.00 0.00 0.00 70 1011.7
20260506144123 65 98 0.9 6.1 0.00 0.00 0.00 71 1011.8
20260506143119 64 91 0.9 3.5 0.00 0.00 0.00 74 1012.2
20260506142125 64 75 1.7 3.5 0.00 0.00 0.00 75 1012.0
20260506141126 64 83 1.7 2.6 0.00 0.00 0.00 74 1012.0
20260506140115 63 101 0.9 2.6 0.00 0.00 0.00 78 1012.0
20260506135117 62 104 0.0 1.7 0.00 0.00 0.00 80 1011.8
20260506134123 61 86 0.9 2.6 0.00 0.00 0.00 81 1011.9
20260506133145 61 32 2.6 5.2 0.00 0.00 0.00 81 1011.7
20260506132146 60 90 0.9 2.6 0.00 0.00 0.00 82 1011.8
20260506131116 60 19 2.6 3.5 0.00 0.00 0.00 83 1012.0
20260506130117 59 95 1.7 2.6 0.00 0.00 0.00 84 1012.1
20260506125123 59 67 2.6 3.5 0.00 0.00 0.00 84 1012.0
20260506124125 59 96 0.9 1.7 0.00 0.00 0.00 85 1012.2
20260506123126 59 93 0.9 2.6 0.00 0.00 0.00 85 1012.4
20260506122116 58 57 2.6 5.2 0.00 0.00 0.00 85 1012.6
20260506121137 58 83 1.7 2.6 0.00 0.00 0.00 86 1012.3
20260506120123 58 95 0.9 1.7 0.00 0.00 0.00 86 1012.3
20260506115139 58 95 0.9 1.7 0.00 0.00 0.00 87 1012.4
20260506114126 58 96 0.9 2.6 0.00 0.00 0.00 87 1012.0
20260506113116 57 66 1.7 3.5 0.00 0.00 0.00 87 1012.4
20260506112117 57 91 0.9 3.5 0.00 0.00 0.00 88 1012.3
20260506111118 57 89 0.9 2.6 0.00 0.00 0.00 88 1012.3
20260506110118 56 92 0.0 1.7 0.00 0.00 0.00 90 1012.3
20260506105115 56 99 0.9 1.7 0.00 0.00 0.00 91 1012.8
20260506104121 55 96 1.7 1.7 0.00 0.00 0.00 91 1012.5
20260506103117 55 100 0.0 0.9 0.00 0.00 0.00 91 1012.6
20260506102118 55 103 0.0 0.9 0.00 0.00 0.00 91 1012.4
20260506101118 55 92 0.9 1.7 0.00 0.00 0.00 91 1012.3
20260506100125 55 96 0.9 2.6 0.00 0.00 0.00 91 1012.3
20260506095116 55 0.0 0.9 0.00 0.00 0.00 90 1012.2
20260506094122 55 104 0.0 0.9 0.00 0.00 0.00 90 1012.2
20260506093118 55 103 0.9 0.9 0.00 0.00 0.00 89 1012.1
20260506092137 55 101 0.0 0.9 0.00 0.00 0.00 89 1012.2
20260506091120 55 99 0.9 0.9 0.00 0.00 0.00 88 1012.3
20260506090126 55 0.0 0.0 0.00 0.00 0.00 88 1012.3
20260506085121 55 0.0 0.0 0.00 0.00 0.00 87 1012.4
20260506084121 56 104 0.0 0.9 0.00 0.00 0.00 87 1012.2
20260506083119 56 0.0 0.9 0.00 0.00 0.00 86 1012.3
20260506082120 56 0.0 0.0 0.00 0.00 0.00 86 1012.2
20260506081121 56 0.0 0.0 0.00 0.00 0.00 86 1012.1
20260506080121 56 0.0 0.0 0.00 0.00 0.00 84 1012.2
20260506073120 57 98 0.0 1.7 0.00 0.00 0.00 81 1012.2
20260506072121 58 113 0.0 0.9 0.00 0.00 0.00 80 1012.4
20260506071121 58 0.0 0.9 0.00 0.00 0.00 78 1012.3
20260506070121 59 107 0.0 0.9 0.00 0.00 0.00 77 1012.3
20260506062116 60 67 2.6 3.5 0.00 0.00 0.00 72 1012.1
20260506061126 60 103 0.0 0.9 0.00 0.00 0.00 72 1012.1
20260506060121 61 101 0.9 0.9 0.00 0.00 0.00 71 1012.3
20260506051115 62 70 1.7 3.5 0.00 0.00 0.00 68 1012.5
20260506050122 62 81 1.7 3.5 0.00 0.00 0.00 68 1012.6
20260506044116 62 101 0.9 1.7 0.00 0.00 0.00 69 1012.6
20260506043123 62 100 0.9 1.7 0.00 0.00 0.00 69 1012.7
20260506042124 62 98 0.9 1.7 0.00 0.00 0.00 68 1012.6
20260506041124 62 93 0.9 1.7 0.00 0.00 0.00 68 1012.6
20260506040127 61 87 1.7 2.6 0.00 0.00 0.00 68 1012.7
20260506035116 61 101 0.9 0.9 0.00 0.00 0.00 69 1012.8
20260506034117 61 0.0 0.9 0.00 0.00 0.00 69 1012.7
20260506033125 61 0.0 0.0 0.00 0.00 0.00 68 1012.8
20260506032126 61 112 0.9 1.7 0.00 0.00 0.00 67 1012.6
20260506031136 62 101 0.0 2.6 0.00 0.00 0.00 67 1012.8
20260506030116 62 88 0.9 2.6 0.00 0.00 0.00 67 1012.7
20260506025137 61 96 0.9 2.6 0.00 0.00 0.00 67 1012.6
20260506024119 61 102 0.0 1.7 0.00 0.00 0.00 67 1012.6
20260506023126 62 97 0.9 1.7 0.00 0.00 0.00 67 1012.6
20260506022120 62 0.0 0.9 0.00 0.00 0.00 66 1012.5
20260506021115 62 100 0.9 0.9 0.00 0.00 0.00 66 1012.4
20260506020117 62 0.0 0.0 0.00 0.00 0.00 66 1012.6
20260506015138 62 105 0.0 0.9 0.00 0.00 0.00 67 1012.6
20260506014118 61 0.0 0.0 0.00 0.00 0.00 68 1012.5
20260506013117 62 0.0 0.0 0.00 0.00 0.00 67 1012.5
20260506012123 63 0.0 0.0 0.00 0.00 0.00 65 1012.3
20260506011117 64 0.0 0.9 0.00 0.00 0.00 63 1012.1